GW5446 Weather Reports


time (UTC)temp
F
wind
direction
speed
knots
gust
knots
rain 1hr
in
rain 24hr
in
rain mn
in
humidity
%
barometer
mb
20260507170028 61 200 4.3 10.4 0.00 0.01 0.00 62 1013.8
20260507165509 60 191 3.5 10.4 0.00 0.01 0.00 57 1013.8
20260507165008 60 143 4.3 9.6 0.00 0.01 0.00 63 1013.9
20260507164530 60 309 4.3 9.6 0.00 0.01 0.00 63 1013.9
20260507164014 60 155 4.3 8.7 0.00 0.01 0.00 62 1013.8
20260507163510 59 193 2.6 7.8 0.00 0.01 0.00 60 1013.8
20260507163033 59 205 2.6 8.7 0.00 0.01 0.00 62 1013.8
20260507162513 59 195 4.3 8.7 0.00 0.01 0.00 63 1014.1
20260507162009 58 159 4.3 8.7 0.00 0.01 0.00 62 1014.1
20260507161527 58 143 4.3 8.7 0.00 0.01 0.00 63 1014.1
20260507161010 59 165 3.5 6.1 0.00 0.01 0.00 66 1014.4
20260507160511 58 175 3.5 6.1 0.00 0.01 0.00 66 1014.3
20260507160034 58 179 1.7 5.2 0.00 0.01 0.00 67 1014.4
20260507155510 58 207 2.6 5.2 0.00 0.01 0.00 67 1014.3
20260507155010 58 193 1.7 4.3 0.00 0.01 0.00 65 1014.2
20260507154533 57 174 2.6 4.3 0.00 0.01 0.00 69 1014.5
20260507154010 56 0 0.9 4.3 0.00 0.01 0.00 75 1014.5
20260507153509 56 134 2.6 4.3 0.00 0.01 0.00 75 1014.4
20260507153030 56 155 1.7 4.3 0.00 0.01 0.00 76 1014.5
20260507152513 56 167 2.6 4.3 0.00 0.01 0.00 74 1014.5
20260507152010 56 199 0.9 4.3 0.00 0.01 0.00 74 1014.5
20260507151530 56 104 1.7 3.5 0.00 0.01 0.00 77 1014.6
20260507151009 55 102 0.0 2.6 0.00 0.01 0.00 78 1014.6
20260507150510 55 0 0.9 2.6 0.00 0.01 0.00 78 1014.7
20260507150029 54 0 0.0 0.9 0.00 0.01 0.00 77 1014.9
20260507145510 54 139 0.0 0.9 0.00 0.01 0.00 78 1014.7
20260507145011 55 0 0.0 0.0 0.00 0.01 0.00 81 1014.7
20260507144529 54 0 0.0 0.0 0.00 0.01 0.00 81 1014.5
20260507144011 53 0 0.0 0.0 0.00 0.01 0.00 82 1014.4
20260507143513 52 0 0.0 0.0 0.00 0.01 0.00 83 1014.1
20260507143027 52 0 0.0 0.0 0.00 0.01 0.00 84 1014.1
20260507142509 51 0 0.0 0.0 0.00 0.01 0.00 86 1014.0
20260507142009 50 0 0.0 0.0 0.00 0.01 0.00 87 1013.8
20260507141530 49 0 0.0 0.0 0.00 0.01 0.00 86 1013.6
20260507141012 49 0 0.0 0.0 0.00 0.01 0.00 87 1013.6
20260507140511 48 0 0.0 0.0 0.00 0.01 0.00 88 1013.5
20260507140028 47 0 0.0 0.0 0.00 0.01 0.00 89 1013.5
20260507135508 46 0 0.0 0.0 0.00 0.01 0.00 90 1013.5
20260507135010 45 0 0.0 0.0 0.00 0.01 0.00 91 1013.5
20260507134530 45 0 0.0 0.0 0.00 0.01 0.00 93 1013.5
20260507134012 44 0 0.0 0.0 0.00 0.01 0.00 94 1013.5
20260507133510 44 0 0.0 0.0 0.00 0.01 0.00 93 1013.4
20260507133030 43 0 0.0 0.0 0.00 0.01 0.00 93 1013.3
20260507132513 43 0 0.0 0.0 0.00 0.01 0.00 94 1013.3
20260507132010 42 0 0.0 0.0 0.00 0.01 0.00 93 1013.3
20260507131527 42 0 0.0 0.0 0.00 0.01 0.00 92 1013.2
20260507131012 42 0 0.0 0.0 0.00 0.01 0.00 92 1013.2
20260507130510 43 0 0.0 0.0 0.00 0.01 0.00 91 1013.2
20260507130030 43 0 0.0 0.0 0.00 0.01 0.00 91 1013.2
20260507125514 43 0 0.0 0.0 0.00 0.01 0.00 92 1013.1
20260507125009 43 0 0.0 0.0 0.00 0.01 0.00 91 1013.0
20260507124528 43 0 0.0 0.0 0.00 0.01 0.00 92 1013.1
20260507124011 43 0 0.0 0.0 0.00 0.01 0.00 93 1013.0
20260507123510 42 0 0.0 0.0 0.00 0.01 0.00 92 1012.9
20260507123032 42 0 0.0 0.0 0.00 0.01 0.00 92 1012.8
20260507122510 43 0 0.0 0.0 0.00 0.01 0.00 92 1012.8
20260507122009 42 0 0.0 0.0 0.00 0.01 0.00 91 1012.6
20260507121537 43 0 0.0 0.9 0.00 0.01 0.00 88 1012.5
20260507121012 44 0 0.0 0.9 0.00 0.01 0.00 90 1012.4
20260507120509 44 307 0.0 0.9 0.00 0.01 0.00 90 1012.4
20260507120030 44 0 0.0 2.6 0.00 0.01 0.00 90 1012.4
20260507115510 44 0 0.0 2.6 0.00 0.01 0.00 88 1012.4
20260507115010 45 311 0.9 2.6 0.00 0.01 0.00 89 1012.3
20260507114530 45 272 0.9 1.7 0.00 0.01 0.00 89 1012.3
20260507114010 44 0 0.0 0.0 0.00 0.01 0.00 90 1012.3
20260507113509 44 0 0.0 0.0 0.00 0.01 0.00 92 1012.3
20260507113034 43 0 0.0 0.0 0.00 0.01 0.00 90 1012.3
20260507112511 44 0 0.0 0.0 0.00 0.01 0.00 88 1012.3
20260507112017 44 0 0.0 0.0 0.00 0.01 0.00 89 1012.2
20260507111530 45 0 0.0 0.0 0.00 0.01 0.00 86 1012.2
20260507111011 46 0 0.0 0.0 0.00 0.01 0.00 88 1012.2
20260507110516 46 0 0.0 0.0 0.00 0.01 0.00 88 1012.1
20260507110031 45 0 0.0 2.6 0.00 0.01 0.00 86 1011.9
20260507105513 46 0 0.0 4.3 0.00 0.01 0.00 86 1011.9
20260507105010 47 0 1.7 4.3 0.00 0.01 0.00 85 1011.8
20260507104528 47 338 1.7 3.5 0.00 0.01 0.00 85 1011.7
20260507104008 47 340 0.9 1.7 0.00 0.01 0.00 85 1011.7
20260507103511 47 294 0.9 4.3 0.00 0.01 0.00 86 1011.7
20260507103027 47 338 0.9 4.3 0.00 0.01 0.00 86 1011.8
20260507102512 46 285 0.9 3.5 0.00 0.01 0.00 88 1011.7
20260507102011 46 293 0.9 3.5 0.00 0.01 0.00 86 1011.7
20260507101534 46 285 0.0 3.5 0.00 0.01 0.00 87 1011.7
20260507101011 46 0 0.0 1.7 0.00 0.01 0.00 87 1011.7
20260507100511 46 286 0.9 1.7 0.00 0.01 0.00 87 1011.6
20260507100034 46 295 0.9 2.6 0.00 0.01 0.00 87 1011.5
20260507095511 46 0 1.7 2.6 0.00 0.01 0.00 87 1011.5
20260507095013 46 0 0.0 0.0 0.00 0.01 0.00 88 1011.4
20260507094530 46 0 0.0 2.6 0.00 0.01 0.00 88 1011.5
20260507094010 45 0 0.9 2.6 0.00 0.01 0.00 90 1011.4
20260507093511 44 0 0.0 0.0 0.00 0.01 0.00 91 1011.4
20260507093038 45 0 0.0 0.0 0.00 0.01 0.00 89 1011.3
20260507092510 45 0 0.0 0.0 0.00 0.01 0.00 87 1011.2
20260507092010 46 0 0.0 0.0 0.00 0.01 0.00 88 1011.1
20260507091528 46 0 0.0 1.7 0.00 0.01 0.00 88 1011.1
20260507091009 46 0 0.0 1.7 0.00 0.01 0.00 88 1011.0
20260507090511 47 0 0.0 1.7 0.00 0.01 0.00 87 1011.1
20260507090032 47 283 0.9 2.6 0.00 0.01 0.00 88 1011.0
20260507085510 47 297 0.9 2.6 0.00 0.01 0.00 89 1010.9
20260507085012 46 0 0.0 0.0 0.00 0.01 0.00 90 1010.9
20260507084528 46 0 0.0 0.0 0.00 0.01 0.00 90 1010.8
20260507084107 46 0 0.0 0.0 0.00 0.01 0.00 90 1010.8
20260507083511 46 0 0.0 4.3 0.00 0.01 0.00 90 1010.7
20260507083037 46 0 0.0 4.3 0.00 0.01 0.00 91 1010.7
20260507082509 47 89 0.9 4.3 0.00 0.01 0.00 87 1010.5
20260507082009 47 0 0.0 1.7 0.00 0.01 0.00 88 1010.6
20260507081531 47 0 0.0 1.7 0.00 0.01 0.00 87 1010.6
20260507081010 47 0 0.0 1.7 0.00 0.01 0.00 87 1010.7
20260507080511 48 0 0.0 1.7 0.00 0.01 0.00 87 1010.6
20260507080030 48 304 0.0 0.9 0.00 0.01 0.00 86 1010.7
20260507075509 49 0 0.0 0.0 0.00 0.01 0.00 87 1010.7
20260507075011 48 0 0.0 0.0 0.00 0.01 0.00 87 1010.6
20260507074529 48 0 0.0 2.6 0.00 0.01 0.00 89 1010.6
20260507074009 48 0 0.0 2.6 0.00 0.01 0.00 88 1010.5
20260507073512 49 295 1.7 2.6 0.00 0.01 0.00 88 1010.4
20260507073030 49 0 0.0 2.6 0.00 0.01 0.00 89 1010.5
20260507072509 49 0 0.0 2.6 0.00 0.01 0.00 88 1010.5
20260507072012 49 269 0.9 1.7 0.00 0.01 0.00 88 1010.4
20260507071535 50 0 0.0 1.7 0.00 0.01 0.00 88 1010.4
20260507071017 49 0 0.0 1.7 0.00 0.01 0.00 89 1010.4
20260507070510 50 290 0.9 1.7 0.00 0.01 0.00 89 1010.4
20260507070031 50 0 0.0 0.0 0.00 0.01 0.00 88 1010.3
20260507065512 51 0 0.0 0.0 0.00 0.01 0.01 88 1010.3
20260507065010 51 0 0.0 1.7 0.00 0.01 0.01 89 1010.4
20260507064529 51 0 0.0 1.7 0.00 0.01 0.01 89 1010.3
20260507064012 51 346 0.0 1.7 0.00 0.01 0.01 89 1010.4
20260507063512 51 0 0.0 0.0 0.00 0.01 0.01 90 1010.4
20260507063032 51 0 0.0 0.0 0.00 0.01 0.01 90 1010.3
20260507062510 51 0 0.0 0.0 0.00 0.01 0.01 90 1010.3
20260507062012 52 0 0.0 0.0 0.00 0.01 0.01 90 1010.2
20260507061528 52 0 0.0 0.0 0.00 0.01 0.01 90 1010.1
20260507061010 52 0 0.0 0.0 0.00 0.01 0.01 89 1010.2
20260507060510 53 0 0.0 1.7 0.00 0.01 0.01 89 1010.1
20260507060030 53 0 0.0 1.7 0.00 0.01 0.01 89 1010.1
20260507055509 53 349 0.9 1.7 0.00 0.01 0.01 90 1010.0
20260507055009 52 345 0.0 1.7 0.00 0.01 0.01 90 1010.0
20260507054528 53 0 0.0 2.6 0.00 0.01 0.01 89 1009.8
20260507054012 53 0 0.0 2.6 0.00 0.01 0.01 89 1009.7
20260507053510 53 195 0.9 2.6 0.00 0.01 0.01 90 1009.5
20260507053028 53 0 0.0 4.3 0.00 0.01 0.01 90 1009.6
20260507052511 53 247 2.6 4.3 0.00 0.01 0.01 91 1009.5
20260507052010 52 0 0.0 0.0 0.00 0.01 0.01 91 1009.5
20260507051529 53 0 0.0 1.7 0.01 0.01 0.01 90 1009.4
20260507051013 53 0 0.0 1.7 0.01 0.01 0.01 90 1009.2
20260507050511 53 0 0.0 0.9 0.01 0.01 0.01 90 1009.1
20260507050030 54 0 0.0 1.7 0.01 0.01 0.01 91 1009.2
20260507045510 54 359 0.9 1.7 0.01 0.01 0.01 90 1009.4
20260507045009 54 0 0.0 1.7 0.01 0.01 0.01 90 1009.3
20260507044530 54 0 0.0 6.1 0.01 0.01 0.01 90 1009.2
20260507044009 54 338 1.7 6.1 0.01 0.01 0.01 88 1009.1
20260507043509 54 91 2.6 6.1 0.01 0.01 0.01 87 1009.1
20260507043035 54 341 0.9 3.5 0.01 0.01 0.01 87 1008.8
20260507042510 55 337 0.9 6.1 0.01 0.01 0.01 85 1008.9
20260507042012 56 358 2.6 6.1 0.01 0.01 0.01 79 1009.1
20260507041532 57 280 2.6 6.1 0.00 0.00 0.00 71 1009.3
20260507041010 58 0 0.0 1.7 0.00 0.00 0.00 68 1009.1
20260507040510 58 293 0.9 2.6 0.00 0.00 0.00 66 1008.8
20260507040029 57 280 0.9 2.6 0.00 0.00 0.00 68 1008.7
20260507035511 57 285 0.0 2.6 0.00 0.00 0.00 67 1008.6
20260507035011 58 0 0.0 1.7 0.00 0.00 0.00 68 1008.6
20260507034530 58 348 0.0 1.7 0.00 0.00 0.00 67 1008.7
20260507034012 58 0 0.0 1.7 0.00 0.00 0.00 65 1008.7
20260507033510 59 0 0.0 1.7 0.00 0.00 0.00 65 1008.6
20260507033029 59 0 0.0 1.7 0.00 0.00 0.00 65 1008.6
20260507032510 60 0 0.0 1.7 0.00 0.00 0.00 66 1008.5
20260507032012 60 0 0.0 1.7 0.00 0.00 0.00 65 1008.5
20260507031528 61 280 0.0 1.7 0.00 0.00 0.00 64 1008.6
20260507031008 61 0 0.0 0.0 0.00 0.00 0.00 66 1008.4
20260507030512 60 0 0.0 0.0 0.00 0.00 0.00 66 1008.6
20260507030032 62 0 0.0 0.0 0.00 0.00 0.00 67 1008.4
20260507025509 62 0 0.0 1.7 0.00 0.00 0.00 61 1008.3
20260507025009 63 0 0.0 1.7 0.00 0.00 0.00 62 1008.3
20260507024528 63 0 0.0 0.0 0.00 0.00 0.00 60 1008.3
20260507024008 64 0 0.0 0.0 0.00 0.00 0.00 56 1008.4
20260507023512 65 0 0.0 0.0 0.00 0.00 0.00 58 1008.6
20260507023031 65 0 0.0 0.0 0.00 0.00 0.00 56 1008.6
20260507022509 65 0 0.0 1.7 0.00 0.00 0.00 55 1008.7
20260507022009 66 0 0.0 2.6 0.00 0.00 0.00 57 1008.7
20260507021530 67 284 0.0 4.3 0.00 0.00 0.00 55 1008.7
20260507021012 69 327 0.9 4.3 0.00 0.00 0.00 44 1008.7
20260507020510 68 190 0.9 4.3 0.00 0.00 0.00 51 1008.7
20260507020033 68 0 0.0 4.3 0.00 0.00 0.00 47 1008.7
20260507015509 68 302 0.9 4.3 0.00 0.00 0.00 50 1008.7
20260507015013 67 288 0.9 4.3 0.00 0.00 0.00 54 1008.7
20260507014528 68 283 0.9 3.5 0.00 0.00 0.00 52 1008.7
20260507014014 68 306 0.9 3.5 0.00 0.00 0.00 51 1008.7
20260507013511 68 328 0.9 3.5 0.00 0.00 0.00 48 1008.7
20260507013036 68 0 0.0 2.6 0.00 0.00 0.00 52 1008.8
20260507012513 68 299 1.7 3.5 0.00 0.00 0.00 52 1008.7
20260507012014 69 0 0.9 5.2 0.00 0.00 0.00 53 1008.6
20260507011538 69 0 0.9 6.1 0.00 0.00 0.00 47 1008.7
20260507011010 70 226 1.7 7.0 0.00 0.00 0.00 45 1008.8
20260507010509 70 261 1.7 7.0 0.00 0.00 0.00 47 1008.8
20260507010032 70 224 0.9 4.3 0.00 0.00 0.00 48 1008.8
20260507005515 70 282 1.7 6.1 0.00 0.00 0.00 47 1008.9
20260507005010 70 300 3.5 6.1 0.00 0.00 0.00 46 1008.9
20260507004531 70 256 1.7 3.5 0.00 0.00 0.00 51 1008.9
20260507004010 70 0 0.0 3.5 0.00 0.00 0.00 49 1009.0
20260507003511 71 316 0.9 6.1 0.00 0.00 0.00 47 1009.1
20260507003029 71 244 1.7 6.1 0.00 0.00 0.00 46 1009.1
20260507002512 71 209 3.5 6.1 0.00 0.00 0.00 46 1009.0
20260507002011 71 266 1.7 5.2 0.00 0.00 0.00 46 1009.1
20260507001533 71 182 1.7 7.0 0.00 0.00 0.00 46 1009.0
20260507001009 71 202 2.6 7.8 0.00 0.00 0.00 45 1009.2
20260507000514 71 155 2.6 7.8 0.00 0.00 0.00 45 1009.1
20260507000030 71 180 2.6 6.1 0.00 0.00 0.00 44 1009.1
20260506235508 71 277 2.6 6.1 0.00 0.00 0.00 44 1009.1
20260506235011 72 226 3.5 6.1 0.00 0.00 0.00 44 1009.1
20260506234536 72 293 2.6 6.1 0.00 0.00 0.00 43 1009.1
20260506234013 72 236 2.6 6.1 0.00 0.00 0.00 45 1009.1
20260506233509 72 248 1.7 4.3 0.00 0.00 0.00 45 1009.1
20260506233029 72 184 1.7 7.0 0.00 0.00 0.00 43 1009.2
20260506232510 71 172 2.6 7.8 0.00 0.00 0.00 45 1009.3
20260506232013 71 165 3.5 9.6 0.00 0.00 0.00 43 1009.2
20260506231535 71 146 2.6 9.6 0.00 0.00 0.00 44 1009.4
20260506231014 72 188 1.7 9.6 0.00 0.00 0.00 42 1009.4
20260506230509 72 192 1.7 7.8 0.00 0.00 0.00 43 1009.5
20260506230030 72 225 1.7 7.8 0.00 0.00 0.00 44 1009.7
20260506225511 72 174 3.5 8.7 0.00 0.00 0.00 40 1009.6
20260506225010 72 158 2.6 8.7 0.00 0.00 0.00 42 1009.6
20260506224530 72 186 2.6 6.1 0.00 0.00 0.00 43 1009.7
20260506224013 72 304 2.6 6.1 0.00 0.00 0.00 42 1009.7
20260506223510 72 248 2.6 7.8 0.00 0.00 0.00 40 1009.8
20260506223031 72 162 2.6 9.6 0.00 0.00 0.00 40 1009.8
20260506222510 72 176 4.3 9.6 0.00 0.00 0.00 39 1009.8
20260506222010 73 148 5.2 11.3 0.00 0.00 0.00 46 1009.7
20260506221529 72 190 5.2 11.3 0.00 0.00 0.00 41 1009.8
20260506221011 72 141 6.1 11.3 0.00 0.00 0.00 40 1009.8
20260506220509 72 188 4.3 10.4 0.00 0.00 0.00 40 1010.1
20260506220030 72 150 5.2 9.6 0.00 0.00 0.00 40 1010.2
20260506215511 72 217 4.3 9.6 0.00 0.00 0.00 37 1010.3
20260506215010 72 93 4.3 9.6 0.00 0.00 0.00 41 1010.4
20260506214529 71 205 3.5 9.6 0.00 0.00 0.00 41 1010.4
20260506214011 71 185 3.5 10.4 0.00 0.00 0.00 40 1010.5
20260506213511 70 230 4.3 10.4 0.00 0.00 0.00 40 1010.5
20260506213028 70 231 3.5 8.7 0.00 0.00 0.00 39 1010.6
20260506212513 70 176 4.3 9.6 0.00 0.00 0.00 42 1010.6
20260506212011 69 323 4.3 12.2 0.00 0.00 0.00 40 1010.7
20260506211529 69 188 3.5 12.2 0.00 0.00 0.00 40 1010.8
20260506211009 69 205 6.1 12.2 0.00 0.00 0.00 41 1010.8
20260506210510 69 181 6.1 11.3 0.00 0.00 0.00 38 1010.8
20260506210027 69 184 2.6 10.4 0.00 0.00 0.00 40 1010.9
20260506205509 69 156 5.2 10.4 0.00 0.00 0.00 37 1010.9
20260506205009 69 291 3.5 10.4 0.00 0.00 0.00 39 1010.9
20260506204533 69 166 3.5 8.7 0.00 0.00 0.00 39 1011.0
20260506204011 69 167 3.5 8.7 0.00 0.00 0.00 38 1011.0
20260506203508 69 185 4.3 8.7 0.00 0.00 0.00 38 1011.1
20260506203043 69 171 3.5 10.4 0.00 0.00 0.00 40 1011.0
20260506202509 68 134 6.1 10.4 0.00 0.00 0.00 38 1011.0
20260506202011 68 244 3.5 9.6 0.00 0.00 0.00 39 1011.2
20260506201528 68 269 3.5 9.6 0.00 0.00 0.00 39 1011.3
20260506201010 68 331 3.5 8.7 0.00 0.00 0.00 40 1011.3
20260506200510 68 141 4.3 8.7 0.00 0.00 0.00 43 1011.3
20260506200044 68 146 3.5 9.6 0.00 0.00 0.00 39 1011.4
20260506195510 67 191 4.3 9.6 0.00 0.00 0.00 36 1011.5
20260506195010 68 183 5.2 10.4 0.00 0.00 0.00 36 1011.7
20260506194531 67 224 3.5 10.4 0.00 0.00 0.00 39 1011.8
20260506194012 67 285 4.3 10.4 0.00 0.00 0.00 35 1011.8
20260506193512 68 217 3.5 10.4 0.00 0.00 0.00 35 1011.9
20260506193028 67 166 3.5 11.3 0.00 0.00 0.00 39 1012.0
20260506192510 67 268 3.5 11.3 0.00 0.00 0.00 36 1012.1
20260506192009 67 207 6.1 11.3 0.00 0.00 0.00 42 1012.3
20260506191530 66 293 2.6 9.6 0.00 0.00 0.00 37 1012.3
20260506191010 66 210 4.3 9.6 0.00 0.00 0.00 37 1012.5
20260506190511 66 199 2.6 9.6 0.00 0.00 0.00 38 1012.5
20260506190036 65 169 4.3 9.6 0.00 0.00 0.00 35 1012.6
20260506185510 66 186 3.5 7.8 0.00 0.00 0.00 40 1012.7
20260506185009 65 199 2.6 7.8 0.00 0.00 0.00 37 1012.8
20260506184531 64 203 4.3 7.8 0.00 0.00 0.00 36 1012.7
20260506184011 64 174 3.5 7.8 0.00 0.00 0.00 41 1012.9
20260506183510 64 246 3.5 8.7 0.00 0.00 0.00 38 1012.8
20260506183028 64 165 4.3 9.6 0.00 0.00 0.00 42 1012.9
20260506182510 64 198 4.3 9.6 0.00 0.00 0.00 36 1013.0
20260506182015 64 266 2.6 7.0 0.00 0.00 0.00 39 1012.9
20260506181528 63 194 3.5 7.0 0.00 0.00 0.00 42 1013.0
20260506181012 62 102 3.5 5.2 0.00 0.00 0.00 43 1013.1
20260506180513 61 135 1.7 5.2 0.00 0.00 0.00 41 1013.0
20260506180028 61 98 0.9 5.2 0.00 0.00 0.00 41 1013.1
20260506175511 60 181 2.6 5.2 0.00 0.00 0.00 42 1013.2
20260506175011 61 88 2.6 4.3 0.00 0.00 0.00 44 1013.2
20260506174528 60 63 1.7 4.3 0.00 0.00 0.00 47 1013.3
20260506174013 59 108 1.7 3.5 0.00 0.00 0.00 43 1013.3
20260506173511 59 113 0.9 3.5 0.00 0.00 0.00 46 1013.4
20260506173039 58 88 1.7 3.5 0.00 0.00 0.00 45 1013.5
20260506172511 59 129 0.0 3.5 0.00 0.00 0.00 47 1013.5
20260506172010 58 145 0.0 3.5 0.00 0.00 0.00 49 1013.7
20260506171534 58 79 1.7 5.2 0.00 0.00 0.00 48 1013.7
20260506171010 57 0 0.9 5.2 0.00 0.00 0.00 47 1013.7
20260506170513 57 181 0.0 2.6 0.00 0.00 0.00 49 1013.9